When you browse on this site, cookies collect data to enhance your experience and personalize the content and advertising you see.
Visit our Privacy Policy to learn more. By continuing to use the site, you agree to this use of cookies and data.
  • Em Portugal
  • Lista de países
  • Para 7 dias
  • Temperatura da água
  • Mapa do tempo
  • Widgets de tempo
  • user-avatar
    Iniciar Sessão

    Previsão horária em Lisboa

    Hoje, 16 Fevereiro, Domingo

    Tempo Temperatura Precipitação Vento Pressão Humidade
    00:00 +12°C° 0 mm 2 m/s 765 mmHg 87%
    01:00 +12°C° 0 mm 2 m/s 765 mmHg 89%
    02:00 +12°C° 0 mm 2 m/s 765 mmHg 90%
    03:00 +12°C° 0 mm 2 m/s 765 mmHg 91%
    04:00 +12°C° 0 mm 2 m/s 765 mmHg 92%
    05:00 +12°C° 0 mm 2 m/s 765 mmHg 94%
    06:00 +12°C° 0 mm 2 m/s 765 mmHg 92%
    07:00 +13°C° 0 mm 2 m/s 765 mmHg 90%
    08:00 +13°C° 0 mm 3 m/s 765 mmHg 87%
    09:00 +14°C° 0 mm 3 m/s 766 mmHg 81%
    10:00 +17°C° 0 mm 3 m/s 766 mmHg 76%
    11:00 +18°C° 0 mm 4 m/s 766 mmHg 71%
    12:00 +19°C° 0 mm 4 m/s 766 mmHg 71%
    13:00 +19°C° 0 mm 4 m/s 766 mmHg 71%
    14:00 +19°C° 0 mm 4 m/s 765 mmHg 71%
    15:00 +18°C° 0 mm 4 m/s 765 mmHg 77%
    16:00 +17°C° 0 mm 3 m/s 765 mmHg 83%
    17:00 +16°C° 0 mm 3 m/s 765 mmHg 89%
    18:00 +14°C° 0 mm 3 m/s 765 mmHg 91%
    19:00 +14°C° 0 mm 3 m/s 766 mmHg 93%
    20:00 +14°C° 0 mm 3 m/s 766 mmHg 95%
    21:00 +13°C° 0 mm 3 m/s 766 mmHg 96%
    22:00 +14°C° 0 mm 2 m/s 766 mmHg 97%
    23:00 +14°C° 0 mm 2 m/s 766 mmHg 98%

    Amanhã, 17 Fevereiro, Segunda-feira

    Tempo Temperatura Precipitação Vento Pressão Humidade
    00:00 +15°C° 0 mm 2 m/s 766 mmHg 98%
    01:00 +15°C° 0 mm 2 m/s 766 mmHg 98%
    02:00 +14°C° 0 mm 3 m/s 766 mmHg 98%
    03:00 +15°C° 0 mm 2 m/s 766 mmHg 97%
    04:00 +15°C° 0 mm 2 m/s 766 mmHg 97%
    05:00 +15°C° 0 mm 2 m/s 766 mmHg 96%
    06:00 +14°C° 0.1 mm 3 m/s 766 mmHg 94%
    07:00 +16°C° 0.1 mm 3 m/s 767 mmHg 92%
    08:00 +15°C° 0.1 mm 4 m/s 767 mmHg 90%
    09:00 +15°C° 0 mm 5 m/s 768 mmHg 86%
    10:00 +15°C° 0 mm 6 m/s 768 mmHg 81%
    11:00 +16°C° 0 mm 6 m/s 768 mmHg 77%
    12:00 +16°C° 0 mm 6 m/s 768 mmHg 72%
    13:00 +16°C° 0 mm 6 m/s 768 mmHg 67%
    14:00 +16°C° 0 mm 6 m/s 768 mmHg 62%
    15:00 +15°C° 0 mm 6 m/s 768 mmHg 63%
    16:00 +14°C° 0 mm 6 m/s 768 mmHg 64%
    17:00 +11°C° 0 mm 7 m/s 768 mmHg 65%
    18:00 +11°C° 0 mm 6 m/s 769 mmHg 68%
    19:00 +10°C° 0 mm 6 m/s 769 mmHg 70%
    20:00 +10°C° 0 mm 6 m/s 769 mmHg 72%
    21:00 +9°C° 0 mm 7 m/s 769 mmHg 74%
    22:00 +9°C° 0 mm 7 m/s 770 mmHg 75%
    23:00 +9°C° 0 mm 7 m/s 770 mmHg 77%

    Depois de amanhã, 18 Fevereiro, Terça-feira

    Tempo Temperatura Precipitação Vento Pressão Humidade
    00:00 +8°C° 0 mm 7 m/s 769 mmHg 77%
    01:00 +8°C° 0 mm 7 m/s 769 mmHg 78%
    02:00 +8°C° 0 mm 7 m/s 769 mmHg 79%
    03:00 +8°C° 0 mm 7 m/s 769 mmHg 79%
    04:00 +8°C° 0 mm 7 m/s 769 mmHg 80%
    05:00 +8°C° 0 mm 7 m/s 768 mmHg 81%
    06:00 +8°C° 0 mm 7 m/s 769 mmHg 78%
    07:00 +9°C° 0 mm 8 m/s 769 mmHg 75%
    08:00 +9°C° 0 mm 8 m/s 770 mmHg 72%
    09:00 +11°C° 0 mm 8 m/s 770 mmHg 67%
    10:00 +12°C° 0 mm 8 m/s 770 mmHg 62%
    11:00 +13°C° 0 mm 8 m/s 770 mmHg 57%
    12:00 +13°C° 0 mm 8 m/s 769 mmHg 56%
    13:00 +13°C° 0 mm 9 m/s 768 mmHg 55%
    14:00 +13°C° 0 mm 9 m/s 768 mmHg 55%
    15:00 +12°C° 0 mm 9 m/s 768 mmHg 58%
    16:00 +11°C° 0 mm 9 m/s 768 mmHg 61%
    17:00 +10°C° 0 mm 9 m/s 768 mmHg 64%
    18:00 +9°C° 0 mm 8 m/s 768 mmHg 67%
    19:00 +9°C° 0 mm 7 m/s 769 mmHg 69%
    20:00 +8°C° 0 mm 7 m/s 769 mmHg 72%
    21:00 +8°C° 0 mm 6 m/s 769 mmHg 74%
    22:00 +8°C° 0 mm 6 m/s 769 mmHg 75%
    23:00 +8°C° 0 mm 5 m/s 769 mmHg 76%

    19 Fevereiro, Quarta-feira

    Tempo Temperatura Precipitação Vento Pressão Humidade
    00:00 +7°C° 0 mm 5 m/s 769 mmHg 75%
    01:00 +7°C° 0 mm 4 m/s 768 mmHg 74%
    02:00 +6°C° 0 mm 4 m/s 768 mmHg 72%
    03:00 +6°C° 0 mm 4 m/s 768 mmHg 72%
    04:00 +7°C° 0 mm 3 m/s 768 mmHg 72%
    05:00 +5°C° 0 mm 3 m/s 768 mmHg 72%
    06:00 +7°C° 0 mm 3 m/s 768 mmHg 69%
    07:00 +7°C° 0 mm 4 m/s 768 mmHg 65%
    08:00 +8°C° 0 mm 4 m/s 768 mmHg 62%
    09:00 +11°C° 0 mm 4 m/s 768 mmHg 59%
    10:00 +13°C° 0 mm 4 m/s 768 mmHg 55%
    11:00 +16°C° 0 mm 3 m/s 768 mmHg 52%
    12:00 +17°C° 0 mm 3 m/s 767 mmHg 52%
    13:00 +18°C° 0 mm 3 m/s 767 mmHg 51%
    14:00 +19°C° 0 mm 2 m/s 766 mmHg 51%
    15:00 +18°C° 0 mm 2 m/s 766 mmHg 57%
    16:00 +17°C° 0 mm 2 m/s 765 mmHg 62%
    17:00 +16°C° 0 mm 3 m/s 765 mmHg 68%
    18:00 +15°C° 0 mm 2 m/s 765 mmHg 71%
    19:00 +14°C° 0 mm 2 m/s 765 mmHg 74%
    20:00 +13°C° 0 mm 2 m/s 765 mmHg 77%
    21:00 +12°C° 0 mm 2 m/s 765 mmHg 79%
    22:00 +12°C° 0 mm 2 m/s 765 mmHg 80%
    23:00 +12°C° 0 mm 2 m/s 765 mmHg 82%

    20 Fevereiro, Quinta-feira

    Tempo Temperatura Precipitação Vento Pressão Humidade
    00:00 +10°C° 0 mm 2 m/s 764 mmHg 83%
    01:00 +10°C° 0 mm 2 m/s 764 mmHg 84%
    02:00 +10°C° 0 mm 2 m/s 763 mmHg 84%
    03:00 +11°C° 0 mm 1 m/s 763 mmHg 85%
    04:00 +10°C° 0 mm 1 m/s 763 mmHg 85%
    05:00 +10°C° 0 mm 1 m/s 763 mmHg 86%
    06:00 +10°C° 0 mm 2 m/s 763 mmHg 84%
    07:00 +11°C° 0 mm 3 m/s 764 mmHg 82%
    08:00 +12°C° 0 mm 4 m/s 764 mmHg 80%
    09:00 +13°C° 0 mm 4 m/s 764 mmHg 75%
    10:00 +14°C° 0 mm 5 m/s 764 mmHg 70%
    11:00 +15°C° 0 mm 5 m/s 764 mmHg 66%
    12:00 +15°C° 0 mm 5 m/s 764 mmHg 64%
    13:00 +15°C° 0 mm 5 m/s 763 mmHg 63%
    14:00 +16°C° 0 mm 5 m/s 763 mmHg 62%
    15:00 +15°C° 0 mm 6 m/s 763 mmHg 67%
    16:00 +14°C° 0 mm 6 m/s 763 mmHg 72%
    17:00 +12°C° 0 mm 7 m/s 763 mmHg 77%
    18:00 +11°C° 0 mm 7 m/s 764 mmHg 78%
    19:00 +10°C° 0 mm 7 m/s 764 mmHg 79%
    20:00 +10°C° 0 mm 8 m/s 764 mmHg 79%
    21:00 +9°C° 0 mm 8 m/s 765 mmHg 80%
    22:00 +9°C° 0 mm 8 m/s 765 mmHg 81%
    23:00 +9°C° 0 mm 8 m/s 765 mmHg 81%

    21 Fevereiro, Sexta-feira

    Tempo Temperatura Precipitação Vento Pressão Humidade
    00:00 +9°C° 0 mm 7 m/s 765 mmHg 83%
    01:00 +8°C° 0 mm 7 m/s 765 mmHg 84%
    02:00 +8°C° 0 mm 6 m/s 765 mmHg 86%
    03:00 +7°C° 0 mm 5 m/s 765 mmHg 85%
    04:00 +7°C° 0 mm 5 m/s 765 mmHg 83%
    05:00 +7°C° 0 mm 5 m/s 765 mmHg 82%
    12:00 +17°C° 0 mm 5 m/s 766 mmHg 54%
    13:00 +17°C° 0 mm 5 m/s 766 mmHg 52%
    14:00 +19°C° 0 mm 6 m/s 766 mmHg 50%
    15:00 +17°C° 0 mm 5 m/s 766 mmHg 54%
    16:00 +16°C° 0 mm 5 m/s 766 mmHg 58%
    17:00 +15°C° 0 mm 5 m/s 766 mmHg 63%
    18:00 +14°C° 0 mm 4 m/s 767 mmHg 65%
    19:00 +13°C° 0 mm 4 m/s 768 mmHg 67%
    20:00 +12°C° 0 mm 4 m/s 768 mmHg 70%
    21:00 +11°C° 0 mm 4 m/s 768 mmHg 69%
    22:00 +11°C° 0 mm 4 m/s 769 mmHg 69%
    23:00 +10°C° 0 mm 4 m/s 769 mmHg 69%
    Mostrar mais